Volver al catálogo

STARLINK-35973

ActivoComunicacionesVLEO
NORAD 66632·PAYLOAD·🇺🇸 United States

Lanzado Nov 23, 2025 desde Vandenberg Space Force Base

Loading…

Próximos Pases (próximas 24 horas)

TLE

ActualizadoSource: CelesTrak SupGP

Época: Sep 15, 2026, 03:56 UTC

1 66632C 25271R   26258.16437500  .00058413  00000+0  17254-2 0  2588
2 66632  53.1598 334.9250 0001198  86.1237 339.1186 15.34369040    15

Sigue STARLINK-35973 en tiempo real con AllMySat

Download on the App Store